Wind_Speed
15 15 15 14 13 12 13 14 15 16 17 18 17 17 18 20 21 22 21 20 18 18 18 18 18 18 6 3 6 3 2 2 3 2 2 2 3 2 2 3 4 5 6 7 13 4 7
16 15 16 16 15 14 14 14 15 16 17 18 19 19 19 21 22 23 22 20 19 18 18 17 15 14 4 3 2 3 3 3 2 0 1 3 2 3 1 4 1 5 8 8 4 3 2
14 15 16 16 16 15 14 15 15 16 18 19 21 20 20 21 23 24 24 22 21 19 18 14 11 8 1 9 3 5 4 4 3 3 3 2 3 3 1 5 1 4 4 6 4 0 1
14 15 16 16 16 16 15 15 16 17 18 20 21 21 22 22 24 26 25 23 22 21 15 9 9 1 6 2 4 9 6 7 6 10 10 10 4 3 2 4 7 4 5 4 7 3 4
15 15 16 17 18 18 17 16 17 17 18 19 21 22 23 24 24 27 25 23 23 15 8 5 1 2 8 6 5 13 11 5 6 10 6 10 5 3 6 3 6 7 2 4 9 4 4
16 16 17 18 18 19 18 17 17 18 19 21 22 23 23 24 24 26 24 22 5 4 3 1 0 2 6 1 4 8 15 11 3 5 6 5 5 3 4 5 3 4 4 5 6 5 2
15 15 18 18 19 20 19 19 18 18 19 21 22 24 24 24 23 22 24 5 6 4 2 5 2 4 5 10 5 6 11 5 2 7 2 4 5 3 5 5 4 3 4 6 5 5 5
17 18 18 19 20 20 21 20 20 19 20 21 22 23 24 25 22 18 9 4 5 4 8 7 9 7 14 4 4 3 9 4 2 2 2 6 4 8 4 5 6 6 5 6 5 3 0
17 18 18 19 20 21 22 21 20 20 20 20 21 23 24 24 18 5 9 2 19 5 2 8 6 6 5 11 7 7 9 5 3 3 3 5 6 3 3 4 5 3 3 3 5 6 6
17 18 18 19 20 22 23 23 21 21 20 21 21 22 23 24 3 13 4 17 16 4 5 7 5 8 6 6 5 10 11 6 2 6 6 5 5 4 5 6 7 3 5 2 2 4 2
16 18 18 20 21 22 23 24 23 22 21 21 21 21 20 18 14 5 9 16 8 3 3 3 4 2 2 10 3 3 8 4 7 4 5 6 2 7 4 6 5 8 3 2 3 4 2
18 19 19 20 22 23 25 25 24 24 23 23 21 21 20 9 10 8 15 10 2 5 6 6 4 4 5 2 2 3 4 4 3 3 3 7 3 5 6 4 4 3 4 7 5 3 3
18 19 20 22 24 25 26 26 26 26 25 24 23 20 18 11 3 4 16 3 5 3 5 5 1 1 3 6 4 3 5 4 6 4 2 5 4 4 4 1 3 7 7 4 4 5 5
17 19 20 23 24 25 27 28 28 28 28 26 23 17 12 14 5 5 4 5 3 5 6 5 4 0 6 3 3 5 5 4 2 4 3 3 6 2 1 4 6 3 7 5 4 2 5
16 18 19 22 24 26 27 30 29 30 29 29 19 9 6 5 12 6 5 3 7 6 4 6 8 0 3 4 2 4 7 7 8 7 7 5 5 3 3 4 7 3 2 4 7 3 3
17 18 20 21 24 26 28 31 31 31 30 21 14 6 4 2 14 7 4 6 5 4 5 4 2 2 1 5 7 7 8 5 5 9 5 6 2 3 5 4 4 7 7 3 3 2 2
16 17 19 22 24 26 29 31 32 32 31 18 4 3 3 11 8 5 4 6 4 6 4 1 2 3 4 2 7 6 7 4 9 7 6 5 4 6 3 1 7 2 2 7 5 4 5
15 17 20 21 23 27 29 31 32 33 31 15 4 3 3 16 3 1 2 4 3 4 3 4 2 5 4 2 2 1 7 9 6 9 10 8 5 4 9 1 3 3 4 5 5 3 2
15 18 20 22 23 26 29 31 31 32 25 8 2 2 4 4 2 2 5 5 3 3 5 3 3 2 3 3 1 3 2 3 3 9 10 8 1 2 9 7 4 7 3 6 5 3 3
15 18 20 21 22 24 29 31 32 32 21 2 1 2 4 3 1 5 1 5 4 4 6 5 5 3 4 3 4 2 5 3 6 4 9 9 4 7 7 7 4 4 4 4 5 3 4
13 16 18 19 21 24 29 31 31 31 13 3 3 0 2 2 2 2 3 3 3 4 3 6 2 4 4 1 3 5 4 6 5 7 4 5 5 3 3 5 4 3 3 4 4 4 4
12 14 17 20 21 23 27 30 31 31 11 4 2 3 4 2 4 4 5 3 7 7 5 4 3 3 4 5 4 1 1 5 2 6 4 3 2 3 3 3 5 3 4 4 4 2 1
11 14 15 19 21 22 25 28 30 30 15 6 5 3 2 3 5 3 1 4 6 4 3 3 3 5 5 5 6 5 2 2 1 1 3 3 5 3 3 2 4 4 2 3 5 4 2
12 13 14 17 20 21 21 24 27 28 26 5 4 2 2 2 2 2 4 7 7 5 3 4 6 3 4 4 2 3 3 2 7 6 1 3 4 3 2 3 2 5 4 7 10 2 2
12 12 13 16 18 20 20 21 23 25 24 8 5 3 2 1 3 5 9 8 6 7 4 3 6 3 4 5 4 5 5 5 4 4 5 4 4 4 4 3 3 3 4 3 3 2 5
10 12 13 15 16 18 20 20 21 23 24 9 7 9 1 2 3 4 3 4 3 5 7 5 4 7 5 4 4 3 3 4 3 3 4 6 7 5 2 4 5 5 1 2 4 4 9
9 11 12 13 15 17 18 19 20 21 22 14 6 14 1 0 4 2 2 2 3 2 2 4 7 8 3 3 3 2 2 2 2 3 3 3 3 4 3 3 6 5 4 3 3 7 5
9 10 11 12 13 15 16 17 18 19 21 18 2 10 6 1 5 3 2 1 4 3 2 5 2 4 4 4 2 1 1 2 1 2 1 3 4 2 3 4 5 3 5 3 5 1 3
10 10 10 11 12 13 15 16 17 17 19 19 4 9 12 4 5 11 23 23 14 14 2 3 2 1 1 3 2 2 2 3 1 2 3 1 4 3 5 5 3 4 4 2 3 4 4
Wind_Direction
37 36 31 24 18 12 9 6 4 0 360 358 354 349 344 341 339 338 336 333 334 333 334 332 336 340 348 336 257 276 214 199 137 64 15 20 38 81 9 283 312 202 259 270 247 178 244
31 31 30 21 14 10 5 359 360 357 354 354 351 345 341 338 337 334 330 328 326 326 326 326 331 339 353 303 285 269 218 199 217 274 256 167 259 256 160 278 327 301 279 280 271 279 168
30 32 27 19 13 8 6 359 355 354 353 351 349 344 338 337 334 331 325 324 322 320 318 315 323 335 28 239 264 238 234 258 262 255 306 283 333 60 319 316 300 281 289 333 299 330 61
29 26 23 18 11 7 5 360 355 352 351 349 345 341 337 336 332 327 323 322 319 313 309 301 317 2 249 281 260 226 237 265 280 295 275 290 325 118 172 301 358 25 43 4 288 16 282
26 24 18 14 9 4 2 357 353 351 347 346 344 340 337 333 329 325 322 323 316 309 292 290 104 67 272 300 226 231 229 262 308 312 292 307 45 55 18 57 8 8 323 310 309 232 176
23 20 17 13 5 2 360 355 351 348 345 344 344 339 336 332 328 325 325 324 346 37 77 79 135 9 272 226 250 225 224 239 278 325 8 40 53 52 39 64 211 278 328 287 264 304 52
19 17 11 6 2 360 358 356 350 346 343 342 341 339 334 330 329 328 333 354 14 352 15 226 215 268 272 320 270 217 190 172 122 52 63 357 50 235 225 209 215 266 231 243 260 292 205
16 14 10 6 2 359 357 353 349 345 343 341 339 336 331 329 328 323 341 55 54 312 304 249 242 254 262 263 321 283 168 146 114 202 74 15 251 242 228 223 240 240 255 298 291 334 289
16 13 9 5 1 357 354 352 348 344 341 339 336 334 332 330 323 313 320 46 337 3 201 292 219 215 216 149 208 243 148 164 150 165 172 167 240 347 200 284 293 233 222 275 229 345 13
15 9 6 3 360 355 354 352 349 344 340 337 334 332 334 336 336 332 299 334 346 103 39 274 244 257 178 146 269 209 178 142 189 210 184 224 274 265 242 247 162 276 191 228 57 71 263
13 7 6 2 355 355 355 354 350 345 340 334 330 329 329 331 307 298 325 335 2 89 339 250 219 353 232 152 201 215 172 79 187 199 90 252 311 358 315 222 149 225 133 31 99 97 53
9 8 5 359 357 355 355 355 351 346 339 332 326 324 319 319 302 278 334 336 38 48 251 319 184 165 114 164 263 55 112 99 159 174 229 239 262 232 220 254 172 96 79 45 55 62 31
7 4 1 359 358 354 354 355 351 346 340 331 325 319 301 278 252 282 334 36 54 151 332 300 333 33 202 175 211 150 140 163 170 135 305 329 264 270 216 322 33 75 54 1 360 8 216
2 1 0 357 357 355 356 355 351 345 342 331 327 315 288 264 249 280 345 55 158 231 255 298 316 345 178 148 242 158 141 203 266 98 91 119 322 197 23 168 185 86 138 148 192 220 266
3 0 357 354 356 357 357 356 354 346 344 334 330 314 278 273 211 213 77 95 206 212 297 348 328 0 240 229 160 145 187 200 204 163 168 161 267 314 262 193 137 184 107 177 102 23 44
1 360 358 354 357 356 357 358 357 348 348 338 332 320 271 212 165 136 82 223 230 229 327 20 18 343 320 269 160 156 181 210 213 184 164 201 290 254 295 96 59 153 156 74 23 165 264
3 2 359 0 359 360 355 358 -0 352 351 346 347 33 350 151 143 52 168 230 279 261 335 359 274 289 271 276 189 181 199 272 203 180 129 135 108 282 15 310 167 67 74 49 113 123 158
3 3 2 1 1 360 355 358 2 356 354 354 357 56 134 153 59 24 178 212 285 304 355 308 253 239 257 294 315 166 212 221 204 152 161 198 154 227 236 284 292 127 139 127 120 234 101
2 2 2 1 -0 1 356 359 2 360 352 346 51 271 161 347 127 293 292 287 265 270 243 259 285 273 291 278 250 233 234 255 354 162 167 174 235 312 340 354 6 83 75 109 118 85 177
3 2 0 -0 359 1 359 1 2 1 350 114 71 58 333 51 135 146 357 274 251 248 242 207 240 282 273 350 30 306 335 351 353 70 74 100 118 164 202 202 182 126 90 72 108 98 180
360 355 358 359 2 3 4 3 5 8 13 31 27 338 172 305 312 280 185 270 305 312 272 197 244 228 220 34 15 359 321 346 348 14 70 107 124 150 147 163 144 117 97 154 157 170 142
351 354 356 1 4 8 5 5 8 11 10 40 64 27 356 281 309 308 171 265 226 260 229 293 204 161 134 145 195 164 294 20 347 334 46 351 137 113 44 78 115 123 34 88 90 110 173
349 352 353 359 4 8 8 6 9 13 26 32 2 16 116 292 343 30 256 286 274 323 227 220 228 116 116 188 189 228 219 135 26 339 26 43 119 95 174 315 114 25 13 103 94 51 135
351 348 352 356 2 5 8 6 8 11 15 347 1 333 52 290 12 298 305 332 290 272 256 309 85 99 256 339 315 54 31 12 61 30 125 115 83 78 135 42 62 257 2 113 111 89 71
344 346 349 355 356 2 2 4 5 5 9 1 6 7 68 304 268 313 329 342 334 339 16 33 11 311 304 47 52 39 348 9 337 30 25 73 108 67 111 108 259 118 223 165 138 219 195
330 340 342 352 351 358 359 2 3 4 6 17 37 7 83 119 248 283 320 352 355 334 342 330 336 314 64 75 75 124 180 230 301 347 65 46 70 102 97 114 180 237 310 91 112 311 183
313 330 336 342 348 353 355 358 1 2 4 13 46 16 137 31 270 343 14 315 320 345 273 315 339 348 33 52 72 124 219 241 214 185 210 20 19 135 130 144 285 255 288 190 103 238 170
295 314 328 333 341 348 352 354 357 359 2 4 348 26 18 243 282 266 284 58 349 28 33 297 346 350 26 64 108 200 141 266 346 259 6 151 133 190 95 101 267 32 290 165 205 10 145
282 295 315 323 328 339 347 349 352 355 358 3 322 347 335 196 249 288 280 273 239 242 181 359 135 207 160 86 59 106 27 20 80 275 334 76 159 195 167 212 289 312 314 315 185 144 182
Height
836 833 832 829 827 825 823 821 819 816 813 811 809 806 803 800 797 794 790 787 785 784 782 779 775 772 768 768 762 753 753 752 753 754 755 755 758 761 772 771 765 769 758 752 746 751 748
837 834 832 830 827 825 823 821 819 817 815 812 808 805 802 799 795 791 788 785 784 783 781 778 775 772 771 777 755 754 753 753 753 754 754 754 757 754 763 767 769 756 756 755 743 742 743
840 837 835 832 829 827 824 823 820 817 813 810 807 804 801 797 793 788 785 783 781 779 778 776 774 773 772 765 755 755 753 752 753 753 754 752 753 756 758 768 757 757 765 755 749 749 749
842 839 836 834 831 828 825 823 819 816 812 809 807 803 799 794 791 786 782 779 777 775 774 773 773 772 772 755 755 754 754 752 752 752 751 750 750 753 758 757 764 773 775 792 756 751 746
843 840 838 834 831 828 825 822 819 815 812 809 805 801 797 793 788 784 780 776 773 770 771 771 772 773 771 755 754 752 753 753 752 750 750 750 749 762 764 782 797 796 803 793 781 747 750
844 841 837 834 832 828 824 821 817 814 812 807 803 800 795 791 787 782 777 773 770 769 770 771 772 778 759 756 751 750 752 753 754 753 754 755 770 784 791 799 826 806 803 795 795 760 751
844 841 838 835 831 828 824 821 818 813 810 806 802 799 795 791 787 782 775 771 775 776 770 770 768 768 758 753 749 748 749 753 754 761 779 771 790 801 789 787 784 787 793 800 776 755 759
844 840 837 835 831 828 824 820 816 812 809 805 802 799 794 790 786 783 781 781 788 790 788 762 761 760 753 755 760 749 749 760 764 781 773 789 801 780 776 778 785 789 793 789 773 757 760
845 842 839 836 833 829 824 820 816 812 809 806 803 798 794 789 785 784 783 784 783 780 789 767 755 754 750 751 759 755 748 755 767 779 781 796 779 765 772 776 785 781 785 783 786 771 767
845 843 840 837 834 829 825 820 815 812 809 805 801 797 794 787 788 785 782 780 778 776 810 778 760 746 744 745 757 741 743 752 766 779 780 784 766 770 773 778 777 789 771 771 777 791 810
847 844 841 838 834 829 825 820 816 812 807 803 800 796 794 791 789 786 784 778 776 778 832 759 752 734 737 750 746 744 739 748 772 772 775 784 772 774 776 771 763 782 761 774 778 797 799
847 845 842 839 833 829 824 819 815 810 806 801 798 795 791 788 787 784 781 778 778 816 827 769 745 750 754 748 747 742 745 743 749 767 767 773 755 761 763 753 756 760 772 791 804 815 837
849 845 842 838 832 828 823 818 813 808 803 798 794 790 787 786 784 783 781 780 819 830 776 771 760 754 757 761 757 753 760 768 782 795 793 778 769 755 748 763 760 775 805 846 836 849 842
850 846 843 838 833 829 823 817 811 806 800 793 789 785 782 781 782 783 783 800 819 795 790 763 758 757 767 760 760 761 768 781 767 774 796 804 807 762 750 761 774 780 798 842 843 854 840
851 847 844 840 834 828 823 817 811 804 798 789 784 780 779 777 779 783 792 821 810 794 772 773 766 766 769 759 758 762 773 776 766 767 795 806 797 756 751 750 759 782 800 791 830 838 842
850 848 844 840 835 829 823 816 809 801 794 787 783 780 777 776 779 783 802 812 796 780 769 770 780 767 776 771 769 772 778 758 762 756 756 776 797 765 752 749 755 768 776 809 830 835 836
851 848 844 839 835 829 823 816 809 800 793 787 783 784 777 778 782 792 811 808 788 773 767 773 776 775 767 766 767 776 771 753 747 752 757 772 786 782 761 768 775 781 790 809 818 832 848
851 847 844 840 835 830 824 817 810 802 793 788 787 791 780 782 799 814 806 794 779 775 769 770 769 772 767 759 762 763 771 753 734 744 769 766 789 803 786 758 758 761 780 799 827 821 839
851 847 843 839 835 830 824 817 811 804 797 795 798 796 783 783 806 809 800 788 780 777 775 771 770 761 755 759 767 759 754 735 734 743 759 763 792 812 801 783 766 777 773 796 811 819 831
850 847 844 841 837 832 825 817 811 803 796 796 798 796 792 789 797 796 795 793 785 767 771 765 765 761 762 761 762 761 757 737 736 740 743 749 789 790 809 794 780 781 779 782 798 824 823
851 849 846 842 837 831 824 818 812 804 799 799 801 802 801 803 796 794 794 791 788 784 766 762 763 763 762 772 771 772 761 753 740 745 747 757 783 777 776 769 768 772 776 780 786 792 800
851 848 845 841 836 831 827 821 814 806 801 802 805 807 803 804 800 797 796 790 786 780 775 767 765 763 764 772 771 770 765 762 759 751 755 762 782 772 781 772 769 775 773 773 777 782 781
850 847 845 841 836 832 828 824 818 811 806 805 806 806 806 803 803 798 796 790 781 774 762 760 762 765 767 765 760 757 756 758 756 759 765 769 782 792 795 784 780 798 779 779 787 795 795
848 847 844 840 837 833 830 827 822 818 816 814 812 811 809 805 803 800 791 783 779 774 767 759 759 764 757 751 751 754 756 757 755 759 763 774 783 796 802 790 814 790 772 773 790 794 789
848 846 843 840 837 833 831 828 824 821 818 814 814 813 814 812 805 796 792 787 776 772 767 764 762 760 756 760 776 783 786 769 764 761 764 768 786 808 811 821 802 792 780 775 780 792 788
846 844 843 839 837 834 832 829 826 823 818 815 815 814 813 815 804 799 795 791 795 791 781 769 761 757 758 777 785 798 804 788 783 771 770 776 782 796 814 812 820 790 768 765 769 807 784
845 844 842 840 838 835 832 829 827 824 820 817 817 814 814 816 804 799 799 798 795 794 796 786 777 771 763 783 797 801 797 783 791 787 785 800 801 804 816 814 806 780 771 767 798 806 778
843 843 841 839 837 835 832 830 828 825 822 819 817 816 817 817 806 798 795 795 796 797 801 790 783 779 781 792 794 799 797 792 789 783 781 790 806 812 819 817 813 777 771 777 784 776 778
841 841 840 838 837 835 833 831 828 826 823 820 817 817 814 814 805 797 792 790 793 791 794 794 793 794 791 793 799 800 798 801 803 802 786 794 791 801 803 803 788 785 781 773 773 774 775